Location: Keewatin
(47.4004°N, 93.0827°W)
Time: 11:20:09
(UTC+00:00)

Envisat - Pass Details

Date: 14 December 2019
Orbit: 764 x 766 km, 98.1° (Epoch: 18 January)

Event Time Altitude Azimuth Distance (km) Brightness Sun altitude
Rises 12:11:07 0° 23° (NNE) 3,244 6.3 -16.2°
Reaches altitude 10° 12:13:45 10° 35° (NE) 2,312 5.7 -15.7°
Maximum altitude 12:18:07 28° 94° (E) 1,409 5.2 -15.0°
Drops below altitude 10° 12:22:26 10° 153° (SSE) 2,296 6.1 -14.4°
Sets 12:25:02 0° 164° (SSE) 3,217 6.7 -13.9°
